Location: Bad Salzschlirf
(50.3750°N, 9.3000°E)
Time: 19:11:32
(UTC+01:00)

ISS - Visible Passes

Search period start: 18 February 2019 00:00
Search period end: 28 February 2019 00:00
Orbit: 403 x 411 km, 51.6° (Epoch: 19 February)

Date Brightness Start Highest point End Pass type
(mag) Time Alt. Az. Time Alt. Az. Time Alt. Az.
23 Feb -0.9 06:34:20 10° S 06:36:23 16° SE 06:38:26 10° E visible
25 Feb -2.0 06:26:42 10° SSW 06:29:34 29° SSE 06:32:28 10° E visible
26 Feb -1.4 05:35:49 10° S 05:38:13 19° SE 05:40:37 10° E visible
27 Feb -1.0 04:46:29 12° SE 04:46:54 12° SE 04:48:15 10° ESE visible
27 Feb -3.1 06:19:39 10° SW 06:22:50 51° SSE 06:26:03 10° ENE visible
